This is the latest recevied weather packets stored in our database for station/object KP4CRN. If no packets are shown the sender has not sent any weather packets the latest 10 day(s).
| Time | Temp. | Humidity | Pressure | Rain* | Wind** | Luminosity | Snow |
|---|---|---|---|---|---|---|---|
| 1777846992 | 29.44° C | 67% | 1015.7 hPa | 0 mm | - | 22 W/m² | - |
| 1777846689 | 29.44° C | 67% | 1015.8 hPa | 0 mm | - | 28 W/m² | - |
| 1777846388 | 30° C | 66% | 1015.6 hPa | 0 mm | - | 34 W/m² | - |
| 1777846083 | 30° C | 66% | 1015.5 hPa | 0 mm | - | 41 W/m² | - |
| 1777845780 | 30° C | 66% | 1015.4 hPa | 0 mm | - | 51 W/m² | - |
| 1777845477 | 30° C | 65% | 1015.5 hPa | 0 mm | - | 60 W/m² | - |
| 1777845174 | 30.56° C | 65% | 1015.5 hPa | 0 mm | - | 70 W/m² | - |
| 1777844872 | 30.56° C | 65% | 1015.4 hPa | 0 mm | - | 80 W/m² | - |
| 1777844569 | 30.56° C | 64% | 1015.6 hPa | 0 mm | - | 92 W/m² | - |
| 1777844267 | 30.56° C | 63% | 1015.4 hPa | 0 mm | - | 104 W/m² | - |
| 1777843964 | 31.11° C | 62% | 1015.3 hPa | 0 mm | - | 117 W/m² | - |
| 1777843660 | 30.56° C | 63% | 1015.4 hPa | 0 mm | - | 128 W/m² | - |
| 1777843358 | 30.56° C | 63% | 1015.5 hPa | 0 mm | - | 140 W/m² | - |
| 1777843056 | 31.11° C | 62% | 1015.2 hPa | 0 mm | - | 153 W/m² | - |
| 1777842752 | 30.56° C | 62% | 1015.3 hPa | 0 mm | - | 168 W/m² | - |
| 1777842447 | 31.11° C | 63% | 1015.3 hPa | 0 mm | - | 183 W/m² | - |
| 1777842145 | 31.11° C | 62% | 1015.1 hPa | 0 mm | - | 197 W/m² | - |
| 1777841840 | 31.11° C | 61% | 1015.2 hPa | 0 mm | - | 212 W/m² | - |
| 1777841536 | 31.11° C | 62% | 1015.2 hPa | 0 mm | - | 226 W/m² | - |
| 1777841233 | 31.11° C | 62% | 1015 hPa | 0 mm | - | 242 W/m² | - |
| 1777840931 | 31.67° C | 62% | 1015.1 hPa | 0 mm | - | 258 W/m² | - |
| 1777840628 | 31.11° C | 61% | 1015.1 hPa | 0 mm | - | 277 W/m² | - |
| 1777840326 | 31.67° C | 59% | 1015.3 hPa | 0 mm | - | 297 W/m² | - |
| 1777840023 | 31.67° C | 59% | 1015.1 hPa | 0 mm | - | 310 W/m² | - |
| 1777839720 | 31.67° C | 59% | 1015.1 hPa | 0 mm | - | 327 W/m² | - |
* Rain latest hour (hover to see other rain measurements)
** Current wind speed in m/s (hover to see current wind gust speed)